Vertical_Velocity
-8 1 -2 -5 -2 -1 1 1 1 -4 -4 2 -1 -0 -1 -1 5 4 7 1 3 1 1 0 -4 -4 -2 -1 -1 -2 -2 -4 -3 -4 -4 -2 -4 -3 -1 1 -1 -4 -2 -2
2 -1 -7 1 1 1 0 1 -4 -5 -2 3 -0 -2 -2 0 -5 -5 -7 1 3 1 3 0 -1 -3 -4 -2 -2 -3 -1 -0 -0 -1 -2 -4 -2 -1 -2 -2 -1 -0 -3 -2
3 -10 2 2 -0 2 -2 1 -1 1 -2 -2 -1 -4 -2 -6 6 13 14 9 8 -2 -1 2 0 -2 -1 -3 -1 -1 1 -1 -3 -1 -1 1 4 2 -0 -1 -2 -4 -3 -5
0 -9 3 1 0 1 2 -1 0 -0 -3 -4 -3 -8 -1 -1 3 0 5 2 2 2 5 2 1 -2 -2 -2 -1 -1 -0 -2 -3 -4 -3 -3 -5 -4 -1 -3 -2 -3 -2 -7
-16 -1 -1 4 -2 1 -4 -1 1 1 1 2 -2 6 -7 0 4 4 5 3 3 -1 -2 -0 -1 -0 -2 -2 -1 -3 0 -2 -0 -4 -3 -1 -2 -2 -1 -0 -3 0 -11 -6
-6 -4 1 -4 -0 -1 1 -3 -2 0 1 -0 -8 2 -4 1 -5 4 5 6 0 -0 3 -2 0 -2 -2 -0 -0 0 0 -1 1 -3 -2 -2 -2 -1 -1 -4 -2 -8 -7 -4
-1 -8 0 -1 -0 -0 0 -1 -3 -5 -3 -8 -0 -0 0 1 1 -6 -2 4 3 -0 -1 -1 -1 -2 -1 -2 -2 -2 -2 -2 0 -1 -2 -3 -1 -2 -2 1 -5 -9 -12 0
-1 -6 1 1 -5 -6 -2 -4 -5 -2 -2 -4 -1 -1 -2 3 5 4 1 -0 1 2 -0 0 1 -2 -1 -1 -1 -0 -0 -1 -1 1 -2 -1 -1 0 -4 2 -7 -4 -3 2
0 -0 -1 -3 -0 -8 0 1 -4 -2 -1 -3 -3 3 0 1 3 2 1 1 -2 -4 -4 -1 -0 1 1 -2 1 -2 1 -1 -1 -1 -1 1 -1 -2 -3 2 -6 -3 0 -0
0 -4 -1 3 -4 -1 -5 -1 -10 -4 -3 -0 -2 -1 -4 2 2 2 2 -2 2 8 1 1 -1 -1 -1 0 -1 -1 0 0 -1 -1 1 -1 -1 -3 1 -1 -4 -3 -3 1
-1 -7 -8 -1 -1 -3 -2 1 1 -5 -4 -4 -2 -9 -4 -3 -2 -2 -2 -0 -2 -2 -2 -2 -0 -1 0 -1 -0 1 -0 0 0 -1 -1 -0 -0 -0 -0 -2 -4 -3 -2 2
-1 -3 -1 -7 -0 -4 -2 -2 -2 -5 -4 -2 -5 -14 -0 -2 -2 -1 -3 -3 2 5 4 1 -1 -3 -3 -3 1 0 -0 0 0 -1 0 -1 -0 1 -3 -3 -3 -2 -1 2
-2 -2 -2 -9 -9 -5 1 0 -1 -1 -3 -2 -4 -14 -0 1 1 2 -1 1 8 3 4 0 1 -1 1 -1 -1 1 0 -0 -1 -1 1 -2 -1 -1 -1 -1 -3 -2 -0 1
-1 -0 -6 -9 -6 -1 -1 -0 -0 -3 -0 -3 -5 -6 -2 -2 -1 -3 -0 0 -0 1 2 1 -2 -3 0 1 -2 2 1 -0 -3 3 1 -1 -1 -1 -2 -2 -2 -2 0 3
-4 -1 -0 -0 1 -0 2 1 -0 0 -2 1 -6 0 -3 -1 1 0 -2 0 1 1 0 -2 -1 2 2 3 -4 2 2 3 2 3 -0 -1 -0 0 0 -1 -2 0 1 2
0 -2 -1 -1 -1 1 0 -0 0 -0 -1 0 1 -4 -1 4 2 2 1 -0 -2 -4 -3 -3 -3 -3 1 -2 5 2 -2 2 2 0 -1 1 -0 -0 1 0 1 0 1 -1
-0 -2 -1 -2 0 1 3 -6 -2 -1 -0 -1 1 -11 -0 1 1 0 -0 4 -2 -3 -1 -3 -1 -2 -2 4 2 0 -3 1 -0 -1 0 -0 -0 0 0 1 1 -0 -0 1
-1 0 -1 -1 -3 1 -18 -1 -0 0 -3 -0 2 1 -1 -2 2 -2 0 -5 -1 -3 -2 1 -4 -3 0 -1 -1 1 -1 2 1 -1 -1 -1 -1 1 -1 1 0 -1 -1 0
-2 -1 -1 -3 -1 -8 -10 -9 2 5 -8 0 -1 2 3 5 -2 2 0 0 -1 -1 -1 -3 -0 -0 -2 -1 -1 -1 -2 1 -1 -1 -0 -0 1 -1 0 -0 -1 1 1 -1
3 -1 -6 0 -0 -2 -10 -5 2 -2 -5 1 -4 1 -1 -3 -3 -5 -2 5 1 0 -0 -4 0 -0 0 -0 -1 1 1 -1 -1 -1 -0 0 0 -1 -2 0 1 0 -0 1
2 1 -2 0 -1 -6 -3 -3 3 -4 -22 -1 -3 0 -1 -3 -8 -4 -2 0 3 -1 -3 -2 -1 -1 -1 -2 -2 1 -1 -1 -2 0 -1 0 -1 -2 -1 -1 -1 -1 1 -1
-5 -1 -1 1 2 -7 -2 5 -9 -10 2 2 4 1 -1 -1 -0 -1 1 -0 1 -3 -3 -2 -4 -2 0 -1 -1 -2 -2 -2 -0 0 1 -0 -1 1 -2 0 -0 -1 -1 -1
2 -10 -7 -10 -12 -4 5 -4 -1 6 1 2 -2 2 -2 -2 -1 -0 -1 -1 1 -1 -3 -3 2 3 3 -1 6 1 -1 0 1 -0 -1 -1 -1 -1 -3 -0 -2 -2 -1 -2
-2 4 1 1 -4 -5 -5 -2 -1 1 -3 1 -1 -4 -3 -4 -2 -1 -3 -2 2 -1 -3 -1 1 -1 -1 3 5 2 -1 0 0 -1 -0 1 -1 -1 -1 -1 -2 -3 -3 -3
-5 -0 0 -2 -2 0 8 6 0 -1 -2 -2 1 -6 -2 -3 -1 -1 -1 0 2 -0 -2 0 -1 -2 -2 2 -0 -0 -2 1 1 1 0 -1 1 -1 -0 -2 -3 -2 -1 -1
-2 -3 -4 -6 -1 -0 -4 5 -0 -3 -5 -5 -2 3 1 -4 -2 2 -0 0 0 3 2 2 0 -1 -2 -1 -1 -2 -1 2 -1 -0 0 -1 -1 1 0 -1 -0 0 -0 -1
Height
1507 1512 1513 1505 1500 1499 1499 1502 1503 1494 1487 1490 1492 1490 1495 1493 1497 1499 1503 1508 1513 1517 1523 1524 1524 1526 1527 1525 1524 1522 1521 1517 1513 1510 1507 1505 1503 1499 1496 1492 1487 1481 1476 1470
1508 1508 1498 1494 1492 1494 1497 1502 1503 1492 1485 1486 1491 1490 1485 1487 1490 1493 1498 1505 1511 1516 1519 1522 1523 1524 1524 1524 1523 1521 1521 1517 1513 1509 1506 1505 1503 1499 1495 1490 1485 1479 1474 1469
1505 1497 1489 1492 1493 1496 1496 1500 1499 1497 1489 1485 1488 1492 1487 1479 1481 1489 1495 1499 1506 1512 1517 1520 1522 1524 1524 1523 1522 1520 1519 1515 1512 1509 1506 1504 1502 1497 1493 1488 1483 1477 1472 1467
1495 1491 1490 1488 1491 1491 1501 1490 1490 1493 1498 1510 1491 1503 1487 1481 1484 1491 1496 1502 1508 1514 1517 1520 1521 1522 1522 1521 1520 1519 1517 1514 1510 1507 1504 1501 1498 1495 1490 1486 1482 1476 1471 1466
1486 1486 1489 1485 1485 1485 1493 1490 1492 1495 1502 1502 1500 1510 1483 1477 1491 1495 1498 1502 1506 1511 1516 1517 1521 1520 1519 1519 1519 1517 1515 1512 1510 1506 1503 1500 1497 1494 1489 1485 1481 1475 1470 1466
1482 1481 1480 1479 1479 1482 1485 1489 1492 1495 1504 1524 1495 1502 1494 1483 1485 1494 1497 1502 1505 1511 1514 1516 1520 1518 1516 1517 1517 1516 1512 1510 1508 1504 1502 1499 1495 1492 1488 1483 1477 1474 1470 1465
1483 1479 1476 1477 1482 1482 1487 1496 1518 1520 1524 1513 1485 1489 1493 1488 1483 1485 1494 1500 1506 1510 1513 1515 1517 1515 1513 1515 1514 1513 1510 1509 1506 1503 1500 1498 1494 1491 1487 1482 1478 1476 1470 1465
1486 1491 1474 1472 1480 1486 1487 1493 1514 1510 1522 1513 1488 1496 1505 1494 1490 1493 1499 1504 1507 1510 1512 1514 1515 1512 1511 1512 1512 1510 1508 1507 1506 1502 1499 1497 1494 1490 1487 1482 1479 1476 1471 1465
1482 1479 1463 1469 1474 1480 1486 1491 1485 1497 1500 1518 1505 1494 1498 1496 1497 1500 1503 1506 1508 1509 1510 1511 1511 1509 1509 1510 1510 1508 1507 1505 1504 1502 1499 1497 1494 1490 1487 1483 1480 1476 1471 1466
1475 1488 1471 1472 1474 1479 1482 1484 1504 1506 1513 1515 1499 1496 1503 1502 1501 1501 1503 1503 1504 1506 1508 1509 1509 1508 1508 1508 1508 1507 1505 1504 1503 1501 1499 1496 1493 1490 1487 1483 1480 1477 1472 1467
1473 1485 1482 1473 1480 1485 1487 1490 1489 1492 1503 1516 1526 1517 1490 1495 1497 1497 1497 1498 1503 1503 1503 1504 1506 1505 1507 1507 1507 1505 1504 1503 1502 1500 1498 1496 1493 1490 1487 1484 1481 1477 1473 1467
1473 1483 1490 1480 1470 1473 1476 1481 1483 1506 1501 1510 1514 1515 1487 1488 1489 1491 1490 1492 1494 1497 1497 1500 1502 1503 1505 1506 1505 1504 1503 1503 1501 1499 1498 1495 1493 1490 1487 1484 1482 1478 1474 1468
1471 1483 1498 1488 1481 1474 1476 1474 1477 1483 1496 1503 1521 1518 1484 1484 1488 1488 1487 1487 1488 1493 1494 1496 1498 1501 1502 1503 1504 1503 1502 1502 1501 1500 1498 1495 1493 1490 1488 1485 1483 1480 1475 1470
1470 1476 1484 1501 1486 1480 1481 1477 1479 1485 1511 1507 1504 1492 1486 1484 1485 1482 1483 1483 1485 1489 1491 1493 1496 1499 1502 1501 1502 1502 1501 1500 1500 1499 1497 1495 1493 1491 1489 1486 1484 1481 1477 1471
1473 1481 1476 1479 1481 1481 1480 1481 1483 1487 1490 1496 1500 1489 1485 1483 1480 1480 1481 1482 1484 1487 1489 1492 1495 1496 1498 1498 1500 1501 1502 1501 1500 1499 1497 1496 1494 1493 1490 1488 1486 1482 1478 1472
1471 1485 1483 1490 1480 1481 1481 1484 1483 1482 1482 1482 1480 1483 1477 1478 1480 1482 1481 1481 1484 1486 1487 1489 1492 1495 1496 1499 1501 1499 1501 1501 1499 1498 1497 1496 1494 1493 1492 1490 1487 1483 1479 1474
1472 1479 1485 1489 1479 1479 1487 1486 1478 1473 1473 1475 1481 1474 1474 1478 1480 1481 1481 1479 1480 1483 1484 1486 1489 1492 1495 1498 1499 1498 1499 1499 1497 1496 1496 1495 1494 1493 1492 1490 1487 1483 1480 1477
1470 1473 1478 1487 1484 1496 1478 1464 1464 1466 1466 1466 1466 1470 1473 1475 1476 1479 1480 1478 1478 1479 1481 1484 1486 1490 1494 1496 1497 1497 1497 1497 1496 1496 1495 1494 1494 1492 1491 1490 1487 1485 1482 1478
1465 1471 1481 1487 1487 1477 1470 1462 1463 1463 1464 1460 1464 1469 1472 1474 1476 1478 1478 1477 1477 1477 1478 1482 1485 1488 1491 1494 1495 1495 1495 1495 1495 1495 1495 1494 1493 1491 1491 1489 1487 1486 1483 1480
1462 1467 1478 1486 1486 1485 1468 1456 1459 1459 1474 1462 1462 1466 1468 1470 1479 1477 1476 1476 1474 1475 1477 1481 1484 1487 1489 1491 1493 1494 1494 1494 1494 1495 1494 1494 1493 1492 1491 1490 1488 1487 1485 1482
1466 1469 1472 1478 1481 1471 1458 1454 1457 1471 1473 1461 1462 1464 1466 1469 1469 1470 1472 1474 1474 1474 1477 1481 1482 1485 1488 1489 1491 1492 1493 1493 1494 1494 1494 1494 1492 1492 1492 1490 1489 1488 1486 1484
1459 1467 1471 1476 1478 1477 1454 1453 1459 1458 1457 1458 1460 1462 1463 1465 1466 1467 1469 1471 1473 1473 1475 1479 1482 1484 1486 1488 1490 1491 1493 1493 1494 1495 1495 1494 1494 1493 1492 1491 1490 1488 1487 1485
1456 1454 1462 1459 1465 1454 1451 1451 1453 1453 1455 1457 1458 1459 1460 1462 1464 1466 1467 1469 1471 1473 1475 1479 1482 1484 1487 1488 1489 1491 1492 1494 1495 1494 1494 1494 1494 1493 1491 1492 1490 1488 1487 1485
1441 1443 1450 1452 1448 1447 1450 1448 1448 1451 1453 1455 1456 1456 1457 1458 1460 1462 1464 1467 1469 1470 1474 1478 1481 1483 1486 1487 1488 1490 1492 1493 1494 1493 1493 1493 1493 1493 1492 1491 1490 1489 1487 1485
1447 1445 1444 1445 1444 1444 1445 1445 1447 1448 1450 1452 1453 1453 1454 1454 1456 1457 1460 1463 1466 1468 1472 1475 1478 1481 1484 1485 1486 1488 1490 1492 1492 1492 1492 1492 1492 1492 1491 1490 1490 1488 1486 1485
1441 1444 1450 1451 1443 1443 1444 1444 1444 1445 1446 1447 1448 1449 1450 1450 1452 1454 1457 1460 1463 1466 1469 1473 1476 1478 1481 1483 1485 1486 1488 1489 1489 1490 1491 1491 1491 1491 1490 1489 1489 1488 1486 1484